Location: Baia Mare
(47.6567°N, 23.5850°E)
Time: 04:09:47

ISS - Pass Details

Date: 01 April 2018
Orbit: 403 x 406 km, 51.6° (Epoch: 18 March)

Event Time Altitude Azimuth Distance (km) Brightness Sun altitude
Rises 21:11:18 0° 279° (W) 2,324 1.7 -13.1°
Reaches altitude 10° 21:13:28 10° 287° (WNW) 1,464 0.5 -13.5°
Maximum altitude 21:16:34 39° 358° (N) 626 -2.7 -14.0°
Enters shadow 21:18:43 17° 62° (ENE) 1,106 -2.0 -14.3°
